Theta_e
305 306 306 307 307 307 307 308 309 309 309 310 312 312 310 311 308 303 302 306 302 296 297 299 301 294 294 292 286 293 292 293 292 287 287 284 284 287 287 288 284 283 279 282 281 282 278 291 290 283 288 291 297 299
303 305 306 306 306 306 307 307 308 309 309 310 311 311 310 310 308 305 299 307 309 300 296 302 301 302 300 298 293 293 292 294 292 289 290 288 286 288 288 282 291 283 284 282 282 282 290 292 291 292 294 296 298 299
303 304 305 305 306 306 306 307 308 309 309 310 311 310 310 310 308 305 301 303 301 297 298 298 297 304 307 304 304 293 296 299 297 298 292 289 284 289 284 285 285 290 290 285 286 289 290 291 292 293 296 298 299 300
301 303 305 305 305 306 307 307 308 309 309 309 310 309 309 310 309 307 300 303 301 298 290 294 304 299 304 304 306 305 302 303 300 298 292 290 286 293 287 288 285 286 287 286 286 289 289 292 291 293 296 299 298 299
300 302 304 305 305 306 306 307 308 309 309 309 308 308 309 309 307 305 304 303 304 297 290 292 298 302 303 305 305 306 303 301 299 293 291 290 293 291 292 291 286 286 285 284 283 288 287 288 292 294 296 297 298 298
299 301 302 304 305 306 306 306 307 308 308 307 308 308 309 308 305 301 297 305 306 305 293 288 297 298 302 305 303 302 304 302 299 295 293 297 299 293 288 286 289 290 291 289 287 291 292 292 293 297 297 298 298 299
299 300 301 303 305 306 306 306 307 307 307 307 308 308 307 305 302 297 296 300 303 304 295 288 290 300 304 305 304 304 304 302 300 297 295 297 295 295 290 285 289 291 290 290 292 292 290 292 291 296 297 298 300 300
298 299 301 302 304 305 306 306 306 307 307 307 306 305 304 303 302 296 302 304 304 298 296 288 289 294 305 299 298 305 302 302 300 298 299 297 294 294 287 288 291 292 290 290 291 293 292 294 296 295 297 297 296 297
298 299 299 302 304 305 306 306 306 307 306 304 303 302 300 298 296 300 305 305 304 298 291 291 287 288 304 301 302 301 302 295 301 297 296 295 292 287 290 291 290 290 289 289 291 292 293 293 293 293 294 296 295 295
299 298 299 300 303 304 305 306 306 304 303 301 298 295 293 299 307 305 299 294 293 293 293 288 294 290 295 294 296 296 300 294 290 295 299 293 289 294 295 294 293 292 291 292 289 288 290 291 292 292 292 294 296 296
299 298 299 299 301 303 305 306 304 301 299 298 296 295 302 306 302 298 293 291 291 289 291 291 292 290 299 293 294 298 293 294 288 292 291 288 287 293 295 294 295 295 293 293 293 293 293 293 293 292 292 295 296 297
299 298 298 298 299 302 303 304 304 299 298 298 297 299 300 298 296 291 291 293 292 290 295 294 296 296 298 303 297 297 292 294 287 297 291 285 292 295 295 294 293 293 293 293 293 293 294 294 294 294 293 295 296 298
299 299 299 299 298 300 301 303 304 301 300 299 295 293 294 294 287 286 284 288 291 296 298 299 297 300 301 303 297 296 292 289 298 291 287 292 294 295 295 294 292 293 294 293 294 294 295 295 296 296 295 296 296 297
299 299 300 299 299 299 300 302 302 300 298 291 290 285 288 287 290 291 291 293 298 299 300 299 298 298 301 297 297 293 295 295 288 285 286 295 295 295 295 294 292 291 293 292 293 295 295 295 295 296 296 297 295 296
298 300 300 299 300 303 304 304 301 299 295 289 290 285 288 293 295 296 298 297 299 303 301 299 299 299 297 295 297 295 291 288 289 287 293 297 296 295 294 294 292 292 292 293 294 294 295 296 295 295 297 297 297 296
299 299 299 302 302 302 303 300 297 296 292 290 289 288 293 293 294 296 296 297 301 301 301 299 296 294 293 294 293 291 290 288 290 296 298 297 295 295 294 294 294 293 293 294 295 295 295 295 295 295 296 297 296 297
298 294 300 299 301 303 301 296 293 289 288 289 288 293 293 293 292 295 296 297 301 299 293 296 292 292 297 293 292 295 292 295 299 299 300 298 296 295 295 295 295 294 294 295 295 296 295 296 297 296 295 296 297 297
295 297 299 301 299 296 294 294 290 288 286 288 287 292 294 296 295 296 297 299 298 296 294 294 298 292 289 289 291 297 298 299 300 299 299 298 297 297 298 296 296 295 294 295 295 296 296 295 294 294 296 297 297 297
297 298 298 298 297 294 289 289 290 286 288 291 293 295 295 296 298 299 299 300 300 299 301 299 294 293 293 298 298 298 301 298 296 297 298 299 299 298 299 299 297 296 295 296 296 295 296 295 295 296 295 296 295 297
299 298 298 298 298 291 287 289 294 289 287 292 295 293 294 295 297 298 298 298 297 298 296 295 295 297 297 301 303 302 302 299 297 294 295 297 299 298 299 299 298 297 297 296 296 295 296 295 296 296 296 295 295 294
297 298 299 298 295 292 289 290 290 291 293 292 295 295 293 297 295 295 295 298 296 295 295 298 299 304 304 304 306 305 302 300 297 296 295 295 298 298 299 300 299 299 296 296 294 294 294 295 296 296 295 295 295 295
296 297 294 295 290 290 289 293 291 295 293 293 293 295 292 293 294 294 298 295 295 296 298 299 301 304 304 303 302 303 304 302 301 298 296 297 297 298 298 299 298 297 297 297 296 296 295 295 296 296 295 295 295 295
297 295 292 290 287 287 287 295 290 292 288 291 294 291 292 293 296 299 295 296 297 302 303 302 306 306 303 304 304 305 303 300 298 298 298 299 300 300 299 300 300 298 296 296 297 296 295 293 293 294 294 295 294 293
295 289 287 288 287 285 292 290 292 291 292 290 290 289 292 295 300 296 293 296 299 302 303 305 305 302 301 301 299 303 302 301 299 299 300 300 298 299 300 300 300 300 300 297 298 297 296 295 293 295 294 294 293 292
285 286 288 285 290 287 287 288 289 289 288 290 290 290 294 299 293 292 292 296 299 302 303 303 304 303 301 302 304 304 305 302 300 298 301 301 299 299 299 300 300 301 301 298 297 297 295 295 295 295 294 294 292 292
282 288 285 287 288 287 288 287 288 289 290 289 291 295 298 295 291 290 295 299 301 302 300 298 301 303 303 305 305 304 304 305 303 301 302 303 301 298 298 297 297 298 302 301 299 297 296 295 294 295 294 292 289 293
283 286 291 294 292 293 291 293 293 292 290 289 293 293 293 288 288 295 300 302 303 306 304 306 307 306 305 305 308 309 310 307 304 304 305 303 303 303 301 299 297 300 303 302 300 299 298 296 297 296 296 295 294 294
289 291 288 291 292 293 289 290 290 290 292 295 295 291 290 291 292 301 303 307 307 307 306 306 306 306 305 305 307 307 309 309 309 308 305 304 305 305 307 306 303 293 303 303 301 300 300 299 299 299 298 296 295 296
289 292 292 289 290 291 291 290 291 294 297 296 291 290 294 298 303 304 305 306 308 307 305 304 304 305 305 305 306 305 306 307 303 300 299 298 299 301 306 306 305 302 302 300 289 296 300 300 300 300 299 298 297 299
290 294 290 290 289 288 294 297 296 299 299 299 299 298 299 302 305 308 307 307 305 305 306 304 302 302 301 301 301 300 302 302 302 302 300 300 301 303 304 305 305 304 302 301 300 296 288 296 293 299 299 298 298 299
294 293 291 291 290 295 297 299 299 300 301 299 300 298 298 300 303 306 306 307 307 307 305 301 301 301 301 300 300 298 298 301 301 301 301 306 304 303 304 306 306 305 302 301 300 299 298 298 300 300 299 298 299 298
292 291 289 289 292 298 300 296 295 296 298 297 298 299 300 299 296 300 304 305 302 300 295 300 300 300 302 302 302 299 291 297 298 297 298 300 303 305 305 306 306 305 301 300 299 299 299 299 299 299 299 299 299 299
292 292 292 292 293 292 296 295 293 294 296 296 297 299 299 298 295 301 305 305 303 302 301 302 302 303 304 304 302 298 294 296 290 286 286 286 288 295 304 306 306 306 302 299 300 299 299 299 299 299 299 298 299 299
Wind_Speed
16 17 18 19 20 20 20 20 19 17 17 18 17 14 12 11 8 2 7 7 4 5 14 9 4 10 11 6 3 8 7 3 3 6 4 4 3 5 4 0 4 3 4 4 5 4 4 20 9 6 9 24 16 10
18 18 18 19 19 20 20 20 19 19 18 17 16 13 11 11 8 5 4 4 2 6 11 20 23 25 24 23 6 4 5 1 2 1 1 3 3 4 5 3 0 2 1 3 3 4 8 12 7 12 17 15 9 10
18 19 19 20 20 20 20 21 20 18 17 17 16 10 10 11 10 9 4 5 5 6 13 10 10 9 8 13 11 4 2 5 4 4 2 1 5 3 3 3 2 1 2 3 5 1 9 10 12 15 17 8 9 10
17 18 19 21 21 21 20 21 19 17 17 17 9 8 8 10 9 9 3 4 6 6 5 7 8 19 17 9 11 13 9 5 5 3 3 4 3 4 3 4 2 0 4 3 5 5 10 3 12 17 14 9 9 10
18 18 19 21 20 19 18 19 19 15 12 6 6 6 8 7 6 5 7 6 8 4 5 10 22 14 10 7 12 14 11 5 3 2 3 4 3 3 2 2 2 1 3 2 2 5 4 11 14 16 11 8 8 8
18 19 19 21 20 19 17 17 15 13 8 7 7 6 7 6 2 3 3 3 2 4 2 6 7 9 11 7 10 9 7 4 3 4 3 4 0 3 2 2 3 3 5 8 3 6 9 9 11 8 8 7 7 8
18 19 19 21 21 20 17 17 14 12 12 9 11 3 8 6 2 4 3 2 8 5 2 7 6 6 8 6 7 4 5 3 4 3 4 3 3 3 0 2 3 4 2 4 5 7 6 4 5 5 6 8 8 8
17 18 18 19 21 19 16 15 13 12 15 3 7 6 3 3 6 6 4 12 7 3 2 5 6 6 6 5 4 4 5 3 4 4 3 3 2 1 3 4 4 4 3 2 4 4 2 4 4 6 5 7 10 8
16 17 18 18 19 18 15 14 13 11 6 5 4 2 1 2 4 1 6 9 4 1 3 4 4 5 4 3 2 1 4 4 3 4 3 3 3 3 4 2 2 1 1 2 2 3 4 5 8 6 7 7 10 8
15 17 18 18 19 17 16 15 5 6 4 2 2 1 2 3 13 9 1 2 1 2 3 5 4 8 7 3 2 2 1 2 3 5 2 2 2 4 4 3 2 5 2 2 2 2 3 6 8 7 8 6 9 9
15 17 17 18 18 19 16 11 6 6 2 1 1 2 3 4 3 3 3 4 5 5 6 6 8 7 6 5 3 3 2 2 2 2 2 1 1 3 6 3 1 5 2 3 6 5 3 7 8 10 8 7 9 11
15 15 16 17 17 18 17 15 8 2 2 1 2 4 2 4 4 5 4 4 7 6 8 5 6 8 5 3 0 0 2 1 4 1 0 1 3 7 7 5 7 5 3 7 7 8 6 10 7 11 9 8 9 9
16 17 16 17 17 18 17 16 7 2 2 2 2 3 4 4 5 5 5 5 5 4 3 4 3 1 4 3 3 3 3 4 1 0 2 2 9 7 7 8 8 5 6 8 8 8 7 12 9 9 12 10 9 11
17 19 18 18 18 19 18 15 10 5 1 2 3 5 5 5 7 7 7 8 8 4 4 3 5 4 5 4 3 4 5 2 2 1 1 4 10 9 7 9 8 7 8 8 8 8 11 12 11 12 10 14 10 11
18 20 19 19 12 11 10 5 12 1 1 3 4 6 8 9 10 11 5 5 5 1 1 4 6 4 3 2 3 1 3 4 2 1 3 7 10 10 8 8 9 8 8 8 7 8 10 9 12 12 10 11 13 11
16 17 2 7 11 9 3 10 2 1 1 3 6 6 9 8 6 5 7 6 6 5 1 6 4 1 5 4 3 6 2 1 3 3 6 9 10 10 9 8 10 9 8 8 7 9 11 9 12 13 11 10 11 12
15 4 10 19 15 11 16 3 2 4 4 6 7 8 11 10 10 9 6 5 2 2 4 6 3 2 5 3 3 4 5 3 5 4 4 10 11 10 10 10 11 11 10 8 8 10 11 10 9 10 11 9 8 10
9 8 11 16 7 2 1 0 2 4 7 8 8 8 9 9 9 8 7 4 2 2 2 5 5 3 3 8 3 3 5 2 5 5 6 7 10 8 8 11 12 12 11 8 10 9 11 10 8 7 8 12 11 10
9 8 10 3 1 2 2 3 3 5 9 8 10 9 9 8 7 7 6 6 7 5 1 3 5 3 3 3 2 1 2 6 7 6 6 7 7 7 4 14 14 12 12 9 11 8 7 9 6 6 3 3 5 6
15 14 13 9 6 3 4 3 4 6 6 4 7 9 8 8 8 9 9 7 8 4 4 4 3 3 3 5 2 4 3 7 8 7 5 4 4 6 4 6 11 13 10 12 10 8 7 7 4 3 5 3 1 4
7 9 10 8 3 4 3 3 5 5 6 5 6 5 5 6 8 9 10 7 8 9 4 4 5 1 7 1 2 6 8 9 7 6 7 7 5 5 4 3 9 13 9 9 11 11 10 9 9 8 7 7 3 2
1 4 2 1 3 4 6 7 5 3 3 5 6 4 5 5 6 8 7 9 10 8 6 5 2 5 3 5 3 4 8 11 9 7 8 8 5 6 5 5 7 7 8 11 11 10 10 9 8 8 6 8 7 3
1 3 2 3 5 5 7 5 4 5 6 4 2 3 5 6 7 3 3 8 8 5 4 4 2 10 6 3 4 5 10 11 8 6 7 6 8 6 6 7 6 5 6 6 6 5 8 12 10 6 5 9 7 8
2 3 4 5 6 5 5 6 5 5 5 10 10 13 4 4 2 5 4 3 3 4 4 5 9 6 5 6 4 8 8 7 8 7 6 5 6 8 8 6 6 5 3 6 8 6 7 8 11 8 7 6 9 8
4 5 5 6 6 6 5 5 10 7 10 10 12 10 1 2 5 5 4 3 3 3 6 7 4 7 7 10 8 7 10 8 8 8 6 6 6 6 7 6 5 5 3 3 7 11 10 9 9 8 11 9 11 11
6 8 7 6 5 6 6 4 4 8 11 10 6 3 3 1 4 2 4 7 5 4 6 10 11 2 5 7 6 7 5 6 8 8 8 8 7 7 7 8 8 6 7 5 4 10 12 11 11 13 11 13 10 13
5 7 7 6 3 6 5 5 4 5 6 3 4 1 3 3 1 4 4 2 2 2 6 4 6 6 5 4 5 4 4 6 8 8 8 8 7 6 6 7 10 8 8 8 6 6 5 13 13 14 13 13 13 13
5 2 4 5 7 6 9 6 3 5 4 4 6 3 2 4 3 1 2 2 4 4 6 7 7 6 6 6 6 5 3 3 2 7 7 6 5 4 3 3 5 15 10 10 10 9 8 6 6 10 15 13 11 11
5 4 5 8 6 4 3 3 1 2 3 3 4 3 3 3 3 2 4 4 4 4 5 4 3 6 7 6 5 5 5 3 8 13 13 8 6 4 3 4 2 9 8 8 7 11 13 11 8 6 13 11 9 5
8 6 5 6 5 3 3 3 2 0 1 3 3 2 2 2 4 5 5 3 3 4 3 3 4 5 5 4 5 5 4 4 4 1 7 9 8 6 7 3 4 4 4 7 6 5 6 7 4 7 11 8 7 5
2 2 4 5 4 3 4 3 4 3 3 3 2 2 6 3 4 4 3 2 3 1 1 6 7 7 8 7 7 6 4 4 5 5 5 2 6 7 8 6 7 7 7 9 6 5 7 6 6 10 12 12 8 8
4 5 3 3 3 2 3 3 2 2 1 1 2 6 4 2 3 5 4 1 4 6 9 9 7 6 7 7 6 4 2 2 3 3 5 4 3 7 6 5 7 6 9 9 9 8 9 8 7 8 10 13 12 11
6 4 4 4 3 0 1 4 3 2 1 2 3 4 4 4 5 1 3 6 6 6 6 6 6 5 4 6 5 4 3 2 2 2 3 4 4 1 6 3 2 3 5 11 9 10 11 10 8 9 9 9 12 14
Wind_Direction
329 328 326 323 321 319 315 313 307 304 301 301 301 264 263 250 238 237 288 293 250 268 291 263 301 309 297 277 245 321 357 12 40 2 329 341 326 311 325 307 317 327 328 347 329 299 339 4 345 3 297 298 302 304
326 326 324 322 319 317 316 312 309 303 298 299 296 255 258 258 218 209 273 324 298 239 265 295 277 262 250 245 243 256 271 308 159 10 284 296 281 276 331 298 50 292 110 282 255 281 340 344 322 312 307 313 330 343
323 328 325 324 323 321 317 313 309 302 295 294 290 246 252 257 207 208 280 314 293 271 279 255 273 305 244 217 183 188 225 127 180 160 198 256 273 286 287 288 286 338 79 252 291 226 334 315 331 323 323 343 350 1
326 326 327 326 325 323 320 319 315 302 296 293 250 258 263 256 219 222 247 279 297 273 281 284 318 316 296 276 202 196 224 102 82 132 196 255 238 226 248 259 227 42 314 290 260 299 321 311 329 326 330 354 19 19
330 328 329 325 328 327 325 329 333 324 306 284 264 262 287 225 218 254 257 244 254 261 290 303 302 279 310 201 206 196 204 158 146 180 209 262 240 219 216 213 189 248 261 265 291 355 282 289 318 318 332 21 16 31
329 329 330 328 331 329 328 331 335 331 335 315 299 293 289 178 188 279 286 122 283 234 314 299 327 284 294 239 196 217 175 147 146 173 220 239 106 164 253 267 183 310 255 229 266 312 279 296 300 323 337 44 31 43
331 331 334 331 333 333 332 331 335 330 322 320 309 302 132 165 200 239 304 309 322 315 305 291 275 267 229 242 205 202 133 157 141 193 223 224 194 199 143 263 313 300 320 310 296 284 263 303 313 5 357 52 45 51
332 333 337 334 334 335 333 337 329 328 318 320 93 91 118 212 259 272 245 238 205 273 234 266 278 271 193 226 216 161 146 127 200 224 238 194 108 197 239 217 274 315 174 348 345 357 3 304 54 37 26 64 67 52
332 336 338 335 335 336 331 328 328 312 96 93 93 40 298 229 228 68 71 85 80 21 263 224 258 283 311 274 211 155 160 190 162 219 230 146 168 228 205 210 278 337 5 349 6 50 43 48 89 62 52 69 77 65
326 337 337 332 333 335 336 331 4 104 93 38 306 293 257 227 118 137 82 138 136 219 236 253 276 261 346 263 292 48 139 234 209 224 149 191 100 99 141 148 208 166 187 180 135 84 71 80 88 92 66 47 78 81
321 332 335 330 329 333 335 336 144 125 343 302 294 264 351 290 268 217 235 205 171 226 209 235 220 233 256 236 283 166 249 297 287 245 210 184 138 113 148 143 122 138 139 87 103 112 66 117 116 117 97 78 82 83
313 321 327 329 324 325 328 335 205 209 233 199 284 271 261 245 225 243 230 208 201 241 177 221 210 190 251 286 299 37 243 264 251 238 210 193 118 134 143 153 116 106 131 113 119 122 102 134 113 116 113 97 83 80
309 309 313 322 319 312 314 313 264 222 270 290 258 256 231 224 236 229 225 219 225 211 261 214 166 134 315 225 212 180 234 232 127 228 210 92 132 126 123 124 119 126 110 111 104 117 93 125 118 125 132 112 92 88
310 311 308 305 309 300 295 298 183 137 193 245 248 247 239 212 227 209 238 283 328 280 317 18 288 217 216 214 202 234 216 240 226 244 172 141 138 131 133 132 134 145 129 127 113 125 109 123 103 103 99 119 112 95
310 313 304 299 305 324 309 236 152 111 156 246 243 240 234 246 297 302 284 289 322 266 29 296 249 179 290 297 248 261 230 226 147 185 121 127 130 136 144 146 139 144 143 139 127 117 106 110 125 115 111 110 122 117
311 312 290 8 340 319 168 126 60 57 240 239 232 257 263 272 263 312 324 328 29 305 115 259 266 272 223 235 225 225 200 81 197 108 115 125 131 138 139 139 140 144 144 144 139 132 125 114 119 120 118 113 111 127
303 245 314 319 328 313 153 109 128 200 232 233 238 231 262 279 274 271 271 298 66 44 356 319 254 248 306 267 239 39 40 44 104 69 100 130 136 148 141 148 145 146 149 144 134 133 128 135 125 135 135 132 129 123
273 280 313 310 120 40 23 200 195 232 241 236 251 252 262 267 266 269 265 300 309 167 134 247 324 32 46 300 21 99 95 23 48 84 101 119 130 150 158 140 142 146 152 152 142 136 136 148 125 124 135 148 154 145
283 284 280 288 352 309 266 223 219 253 242 252 256 255 260 283 281 270 266 273 275 268 251 228 218 217 172 263 105 169 154 137 129 115 113 127 138 146 162 135 142 147 151 153 139 137 134 145 150 143 150 87 133 166
279 269 256 248 215 210 248 226 221 250 262 270 266 255 255 252 265 250 256 263 264 249 187 256 213 207 151 256 178 173 172 124 119 120 134 149 146 137 137 126 150 152 158 142 136 142 147 136 183 229 128 154 261 136
280 250 230 203 194 205 271 256 237 253 269 267 294 287 259 260 256 247 247 254 255 252 203 237 263 285 83 293 21 3 145 143 148 156 157 144 145 142 140 147 147 159 160 155 156 155 152 159 179 182 181 168 170 206
239 63 97 131 176 201 242 228 242 256 253 252 266 187 255 260 249 246 249 235 240 242 257 218 254 124 132 104 109 300 133 119 121 114 128 129 145 156 145 168 162 158 164 157 173 166 169 167 166 183 163 163 174 149
117 151 190 186 215 219 256 225 236 233 245 238 249 259 232 210 205 232 222 227 233 195 218 211 98 101 96 89 57 170 128 128 128 139 152 154 148 149 148 159 164 178 172 153 144 139 141 157 163 170 133 150 143 135
80 220 212 208 208 252 239 204 223 242 242 255 264 257 270 269 228 207 212 247 200 189 163 133 124 108 53 321 316 160 152 139 133 143 159 149 148 148 162 165 163 182 200 166 156 157 144 147 155 162 152 152 140 151
204 215 223 217 210 235 224 227 222 231 241 264 268 261 215 198 227 213 226 214 205 102 51 16 301 135 167 214 187 151 134 151 148 155 146 151 161 149 163 157 153 183 218 165 171 158 166 155 162 157 170 157 160 163
222 209 202 217 215 219 222 266 263 254 256 254 253 242 98 165 272 323 50 356 11 28 50 359 300 160 76 109 132 147 169 148 155 149 163 167 168 176 170 170 167 175 206 222 154 157 167 163 169 175 170 162 167 166
232 232 209 222 258 283 280 265 244 254 276 288 314 356 174 201 252 64 122 276 299 113 171 192 71 72 78 56 48 87 145 153 170 169 162 164 177 181 175 179 178 177 185 198 171 179 169 170 188 173 160 171 172 189
265 217 242 291 269 268 274 279 301 346 23 336 304 321 35 6 49 50 99 102 90 87 82 77 70 63 64 55 56 50 35 219 156 123 134 151 168 183 208 256 168 157 178 192 175 184 192 199 177 169 157 167 175 198
242 272 268 253 256 264 247 260 154 125 334 358 349 342 5 7 4 3 92 68 68 67 65 57 77 105 92 75 66 55 25 17 143 153 162 164 167 195 172 196 271 173 178 172 182 185 187 190 204 181 158 167 173 183
252 240 254 271 267 253 68 33 83 239 214 220 207 204 243 70 21 6 51 71 84 70 84 78 74 77 74 75 96 79 36 44 41 276 194 187 194 170 165 164 228 258 180 153 163 129 154 145 117 143 151 164 168 172
250 279 243 248 277 45 84 69 2 293 264 202 181 180 105 78 2 1 56 47 80 58 84 81 57 39 49 42 32 15 56 56 10 347 349 278 146 163 170 165 202 243 188 166 173 145 156 153 157 154 157 161 159 150
220 225 246 292 36 26 57 137 225 263 342 102 85 108 94 101 80 4 305 328 36 56 54 67 63 46 43 71 83 88 51 351 350 352 349 342 150 164 148 200 222 216 166 165 167 168 164 158 160 156 161 163 174 181
221 214 216 229 143 259 8 101 11 14 350 143 137 169 161 100 94 289 41 45 59 70 65 70 70 47 47 83 106 114 108 59 38 26 359 335 22 121 160 218 287 306 185 165 172 171 172 172 167 176 182 190 183 191